Location: Asheville, NC
(35.6000°N, 82.5500°W)
Time: 00:28:37
(UTC-04:00)

AO-91 - Visible Passes

Search period start: 21 June 2018 00:00
Search period end: 01 July 2018 00:00
Orbit: 454 x 816 km, 97.7° (Epoch: 20 June)

Date Brightness Start Highest point End Pass type
(mag) Time Alt. Az. Time Alt. Az. Time Alt. Az.
21 Jun ? 01:35:39 10° NE 01:37:36 15° ENE 01:37:36 15° ENE visible
21 Jun ? 03:10:36 10° N 03:15:05 44° WNW 03:15:05 44° WNW visible
22 Jun ? 01:56:43 10° NE 01:59:49 25° ENE 01:59:49 25° ENE visible
22 Jun ? 03:33:05 10° NNW 03:37:12 26° WNW 03:37:18 26° WNW visible
23 Jun ? 02:18:19 10° NNE 02:22:01 40° ENE 02:22:01 40° ENE visible
23 Jun ? 03:56:01 10° NNW 03:58:54 16° WNW 03:59:30 16° WNW visible
24 Jun ? 02:40:12 10° NNE 02:44:13 59° NNE 02:44:13 59° NNE visible
25 Jun ? 01:28:20 10° ENE 01:28:56 11° ENE 01:28:56 11° ENE visible
25 Jun ? 03:02:20 10° N 03:06:25 49° NW 03:06:25 49° NW visible
26 Jun ? 01:48:51 10° NE 01:51:07 19° ENE 01:51:07 19° ENE visible
26 Jun ? 03:24:43 10° N 03:28:36 30° WNW 03:28:36 30° WNW visible
27 Jun ? 02:10:16 10° NNE 02:13:18 30° ENE 02:13:18 30° ENE visible
27 Jun ? 03:47:30 10° NNW 03:50:37 18° WNW 03:50:47 18° WNW visible
28 Jun ? 02:32:02 10° NNE 02:35:29 46° NE 02:35:29 46° NE visible
28 Jun ? 04:11:56 10° WNW 04:12:16 10° WNW 04:12:36 10° WNW visible
29 Jun ? 02:54:04 10° N 02:57:39 48° NNW 02:57:39 48° NNW visible
30 Jun ? 01:41:08 10° NE 01:42:20 14° ENE 01:42:20 14° ENE visible
30 Jun ? 03:16:22 10° N 03:19:49 33° NW 03:19:49 33° NW visible
